EW0158 Weather Reports


Display with metric or nautical units.
time (UTC)temp
F
wind
direction
speed
MPH
gust
MPH
rain 1hr
in
rain 24hr
in
rain mn
in
humidity
%
barometer
mb
20260905175016 87 202 3.0 6.0 0.00 0.00 0.00 58 1017.1
20260905174016 86 135 3.0 9.0 0.00 0.00 0.00 59 1017.3
20260905171016 85 180 4.0 7.0 0.00 0.00 0.00 60 1017.5
20260905170016 85 180 3.0 7.0 0.00 0.00 0.00 60 1017.4
20260905165016 85 180 4.0 10.0 0.00 0.00 0.00 61 1017.5
20260905164016 86 180 3.0 5.0 0.00 0.00 0.00 61 1017.6
20260905163116 84 202 5.0 12.0 0.00 0.00 0.00 64 1017.2
20260905162016 83 202 6.0 11.0 0.00 0.00 0.00 64 1017.3
20260905161016 83 202 5.0 7.0 0.00 0.00 0.00 65 1017.3
20260905160016 84 202 8.0 14.0 0.00 0.00 0.00 66 1017.4
20260905155016 83 202 7.0 14.0 0.00 0.00 0.00 65 1017.4
20260905154016 82 180 7.0 12.0 0.00 0.00 0.00 67 1017.1
20260905153117 82 180 7.0 13.0 0.00 0.00 0.00 68 1017.2
20260905152016 81 202 6.0 11.0 0.00 0.00 0.00 69 1017.1
20260905151016 81 180 5.0 11.0 0.00 0.00 0.00 71 1017.1
20260905150016 80 180 8.0 15.0 0.00 0.00 0.00 74 1017.1
20260905145016 79 180 6.0 11.0 0.00 0.00 0.00 75 1017.2
20260905143016 78 202 6.0 11.0 0.00 0.00 0.00 78 1017.0
20260905142016 77 202 6.0 11.0 0.00 0.00 0.00 80 1016.9
20260905141016 76 180 6.0 13.0 0.00 0.00 0.00 82 1016.9
20260905140017 76 202 7.0 11.0 0.00 0.00 0.00 84 1017.0
20260905135016 75 180 6.0 13.0 0.00 0.00 0.00 85 1016.7
20260905134016 74 180 8.0 14.0 0.00 0.00 0.00 87 1016.7
20260905133016 73 180 5.0 11.0 0.00 0.00 0.00 88 1016.6
20260905132016 73 180 5.0 10.0 0.00 0.00 0.00 89 1016.5
20260905131016 72 180 4.0 9.0 0.00 0.00 0.00 89 1016.3
20260905125016 72 157 3.0 5.0 0.00 0.00 0.00 90 1016.1
20260905124016 72 180 3.0 6.0 0.00 0.00 0.00 90 1016.1
20260905123016 71 180 3.0 5.0 0.00 0.00 0.00 90 1016.1
20260905122016 71 180 3.0 6.0 0.00 0.00 0.00 90 1016.0
20260905115016 71 157 3.0 6.0 0.00 0.00 0.00 90 1015.6
20260905114016 71 180 4.0 6.0 0.00 0.00 0.00 90 1015.8
20260905113016 71 180 3.0 6.0 0.00 0.00 0.00 89 1015.9
20260905112016 71 180 4.0 7.0 0.00 0.00 0.00 89 1015.8
20260905105017 72 180 3.0 5.0 0.00 0.00 0.00 88 1016.1
20260905104117 71 180 3.0 6.0 0.00 0.00 0.00 88 1016.1
20260905103016 71 157 3.0 7.0 0.00 0.00 0.00 87 1015.9
20260905102117 72 180 2.0 5.0 0.00 0.00 0.00 86 1015.9
20260905101016 72 180 4.0 6.0 0.00 0.00 0.00 86 1015.9
20260905100017 72 157 3.0 5.0 0.00 0.00 0.00 86 1015.8
20260905095016 72 157 3.0 5.0 0.00 0.00 0.00 85 1015.7
20260905093016 72 157 4.0 6.0 0.00 0.00 0.00 85 1015.7
20260905092016 73 180 4.0 10.0 0.00 0.00 0.00 84 1015.9
20260905090016 73 180 4.0 7.0 0.00 0.00 0.00 83 1015.9
20260905085017 73 180 4.0 8.0 0.00 0.00 0.00 82 1015.8
20260905084016 73 180 4.0 7.0 0.00 0.00 0.00 82 1016.1
20260905083016 73 157 4.0 7.0 0.00 0.00 0.00 81 1016.1
20260905082016 73 180 4.0 9.0 0.00 0.00 0.00 80 1016.0
20260905081017 74 157 4.0 7.0 0.00 0.00 0.00 79 1015.9
20260905080016 74 157 4.0 8.0 0.00 0.00 0.00 79 1016.0
20260905075017 74 157 5.0 9.0 0.00 0.00 0.00 78 1016.1
20260905074017 74 180 4.0 10.0 0.00 0.00 0.00 77 1016.1
20260905073016 74 180 4.0 10.0 0.00 0.00 0.00 76 1016.1
20260905072017 74 157 4.0 7.0 0.00 0.00 0.00 76 1016.4
20260905071017 74 157 4.0 8.0 0.00 0.00 0.00 75 1016.4
20260905070017 75 157 4.0 7.0 0.00 0.00 0.00 75 1016.5
20260905065017 75 157 4.0 7.0 0.00 0.00 0.00 74 1016.4
20260905064017 75 157 4.0 9.0 0.00 0.00 0.00 74 1016.6
20260905063017 75 157 5.0 11.0 0.00 0.00 0.00 74 1016.6
20260905062017 75 157 4.0 10.0 0.00 0.00 0.00 74 1016.4
20260905061017 75 157 3.0 8.0 0.00 0.00 0.00 74 1016.5
20260905060017 75 157 3.0 7.0 0.00 0.00 0.00 74 1016.4
20260905055016 75 135 4.0 7.0 0.00 0.00 0.00 74 1016.4
20260905054015 75 135 3.0 7.0 0.00 0.00 0.00 74 1016.3
20260905053117 75 135 3.0 5.0 0.00 0.00 0.00 72 1016.2
20260905052017 76 157 4.0 6.0 0.00 0.00 0.00 72 1016.2
20260905051017 76 135 3.0 7.0 0.00 0.00 0.00 72 1016.3
20260905050017 76 135 4.0 6.0 0.00 0.00 0.00 71 1016.4
20260905045016 76 135 4.0 7.0 0.00 0.00 0.00 70 1016.1
20260905044016 76 135 3.0 6.0 0.00 0.00 0.00 70 1016.5
20260905043016 77 135 3.0 6.0 0.00 0.00 0.00 69 1016.2
20260905042016 77 157 3.0 7.0 0.00 0.00 0.00 68 1016.3
20260905041021 77 157 4.0 9.0 0.00 0.00 0.00 67 1016.3
20260905040017 76 157 4.0 9.0 0.00 0.00 0.00 68 1016.2
20260905035117 75 157 3.0 6.0 0.00 0.00 0.00 68 1016.1
20260905034016 75 135 2.0 4.0 0.00 0.00 0.00 69 1015.9
20260905033016 76 135 2.0 5.0 0.00 0.00 0.00 69 1015.8
20260905032016 76 135 2.0 4.0 0.00 0.00 0.00 69 1015.7
20260905030016 77 135 2.0 4.0 0.00 0.00 0.00 68 1015.5
20260905025016 77 135 2.0 4.0 0.00 0.00 0.00 68 1015.3
20260905024017 77 135 2.0 4.0 0.00 0.00 0.00 66 1015.1
20260905023016 77 135 2.0 3.0 0.00 0.00 0.00 66 1014.9
20260905022016 78 135 1.0 3.0 0.00 0.00 0.00 66 1014.9
20260905021017 78 135 1.0 3.0 0.00 0.00 0.00 65 1014.7
20260905020017 79 135 2.0 3.0 0.00 0.00 0.00 63 1014.8
20260905015017 79 135 2.0 4.0 0.00 0.00 0.00 62 1014.9
20260905014022 80 157 2.0 4.0 0.00 0.00 0.00 60 1014.8
20260905013017 80 135 3.0 6.0 0.00 0.00 0.00 58 1014.7
20260905012016 81 157 4.0 7.0 0.00 0.00 0.00 57 1014.5
20260905011016 81 157 3.0 5.0 0.00 0.00 0.00 54 1014.7
20260905005016 83 135 5.0 11.0 0.00 0.00 0.00 58 1014.8
20260905004017 83 180 5.0 9.0 0.00 0.00 0.00 58 1014.9
20260905003017 84 180 4.0 10.0 0.00 0.00 0.00 55 1015.0
20260905002017 85 180 5.0 12.0 0.00 0.00 0.00 55 1014.9
20260905001017 86 202 6.0 13.0 0.00 0.00 0.00 54 1015.1
20260904235016 86 180 6.0 13.0 0.00 0.00 0.00 53 1014.7
20260904234017 86 157 6.0 13.0 0.00 0.00 0.00 53 1014.7
20260904233117 86 157 5.0 9.0 0.00 0.00 0.00 52 1014.5
20260904232017 87 157 4.0 8.0 0.00 0.00 0.00 51 1014.4
20260904231017 87 157 5.0 9.0 0.00 0.00 0.00 49 1014.3
20260904230017 88 157 6.0 11.0 0.00 0.00 0.00 45 1014.4
20260904225017 89 135 6.0 13.0 0.00 0.00 0.00 44 1014.5
20260904224017 88 135 6.0 13.0 0.00 0.00 0.00 46 1014.5
20260904223017 89 135 6.0 14.0 0.00 0.00 0.00 50 1014.4
20260904222017 88 157 6.0 13.0 0.00 0.00 0.00 51 1014.1
20260904221017 88 180 8.0 13.0 0.00 0.00 0.00 50 1014.3
20260904215016 88 135 6.0 12.0 0.00 0.00 0.00 53 1014.3
20260904214017 87 112 5.0 10.0 0.00 0.00 0.00 55 1014.5
20260904213017 87 112 6.0 12.0 0.00 0.00 0.00 55 1014.9
20260904212017 88 135 7.0 14.0 0.00 0.00 0.00 52 1015.0
20260904210017 89 135 6.0 12.0 0.00 0.00 0.00 52 1015.2
20260904205017 89 157 5.0 10.0 0.00 0.00 0.00 54 1015.5
20260904204017 88 135 6.0 12.0 0.00 0.00 0.00 54 1015.5
20260904203022 88 112 7.0 13.0 0.00 0.00 0.00 55 1015.7
20260904202022 88 135 7.0 12.0 0.00 0.00 0.00 54 1015.7
20260904201017 87 157 5.0 10.0 0.00 0.00 0.00 57 1015.7
20260904200017 87 180 7.0 12.0 0.00 0.00 0.00 56 1015.7
20260904195020 88 135 6.0 11.0 0.00 0.00 0.00 56 1015.9
20260904194017 88 180 7.0 12.0 0.00 0.00 0.00 56 1016.0
20260904193017 88 157 6.0 12.0 0.00 0.00 0.00 55 1016.0
20260904192017 88 112 7.0 13.0 0.00 0.00 0.00 56 1016.0
20260904191017 89 180 6.0 12.0 0.00 0.00 0.00 54 1016.1
20260904190017 89 135 5.0 10.0 0.00 0.00 0.00 54 1016.2
20260904185017 88 157 7.0 13.0 0.00 0.00 0.00 55 1016.2
20260904184017 90 157 6.0 12.0 0.00 0.00 0.00 53 1016.5
20260904183017 89 135 6.0 11.0 0.00 0.00 0.00 56 1016.5
20260904182017 88 157 4.0 12.0 0.00 0.00 0.00 57 1016.6
20260904181117 88 225 6.0 11.0 0.00 0.00 0.00 58 1016.6